User: anonymous   Login
Location: Unspecified
(55.6670°N, 0.0000°E)
Time: 20:01:31
(UTC+00:00)
Language:

ACS3 Solar Sail - Orbit

View from above orbital plane
View from above orbital plane
View from above satellite
View from above satellite

Ground track
Ground track

The orbit is defined by the following mean orbital elements,

1 59588U          26088.07683773 +.00000000 +00000-0 +21884-1 0 00007
2 59588  97.1962  24.8306 0072527  32.5610 327.9997 13.90503655    07
Epoch (UTC): 29 March 2026 01:50:38
Eccentricity: 0.0072527
inclination: 97.1962°
perigee height: 874 km
apogee height: 980 km
right ascension of ascending node: 24.8306°
argument of perigee: 32.5610°
revolutions per day: 13.90503655
mean anomaly at epoch: 327.9997°

The dashed part of the orbit path shows where the satellite is in the earth's shadow,  

DLR